Regional Weather Roundup
Issued by NWS Mobile, AL

Home | Current Version | Previous Version | Text Only | Print | Product List | Glossary On
Versions: 1 2 3 4 5 6 7 8 9 10 11 12 13 14 15 16 17 18 19 20 21 22 23 24 25 26 27 28 29 30 31 32 33 34 35 36 37 38 39 40 41 42 43 44 45 46 47 48 49 50
000
ASUS44 KMOB 022117
RWRMOB
REGIONAL WEATHER ROUNDUP
NATIONAL WEATHER SERVICE MOBILE AL
400 PM CDT WED SEP 02 2015

ALZ061>064-022200-
COASTAL ALABAMA


CITY           SKY/WX    TMP DP  RH WIND       PRES   REMARKS
MOBILE REG APT CLOUDY    89  69  51 SW8       30.01F
BROOKLEY FIELD FAIR      90  70  51 SW8       30.01F HX  95
GULF SHORES    FAIR      89  72  57 SW8       30.00F HX  95

$$

ALZ051>060-022200-
INTERIOR SOUTHWEST AND SOUTH CENTRAL ALABAMA


CITY           SKY/WX    TMP DP  RH WIND       PRES   REMARKS
ANDALUSIA/OPP  FAIR      98  67  36 VRB3      29.98F HX 102
EVERGREEN      PTSUNNY   93  67  42 N5        29.99F HX  96
FLORALA        FAIR      94  65  38 CALM      30.00F HX  96
GREENVILLE     FAIR      93  66  40 VRB3      29.99F HX  96

$$

FLZ001>006-022200-
WESTERN FLORIDA PANHANDLE


CITY           SKY/WX    TMP DP  RH WIND       PRES   REMARKS
CRESTVIEW      FAIR      95  64  35 CALM      29.99F HX  97
DESTIN         FAIR      90  70  51 SW13G18   29.99F HX  95
DUKE FIELD     MOSUNNY   96  67  39 SW8       29.97F HX 100
MARY ESTHER    FAIR      90  69  50 S13       29.98F
MILTON         MOCLDY    95  68  41 SW9       29.98F HX  99
PENSACOLA      FAIR      91  68  46 SW12      29.99F HX  95
NAS PENSACOLA  PTSUNNY   88  69  53 SW13      29.99F
VALPARAISO     PTSUNNY   93  68  43 SW12      29.98F HX  97

$$

...MARINE OBSERVATIONS...

STATION/POSITION TIME  SKY/WX   TEMP    WIND        PRES    VSBY
                                AIR SEA DIR/SP/G
                 (UTC)          (F)     (DEG/KT/KT) (MB)    (MI)
PASCAGOULA       2000            85     170/  6/  7 1017.1F
GRAND BAY        1945            86     200/  5     1019.0
PETIT BOIS ISL   2000            86     180/  5/  6 1017.8F
E DAUPHIN ISLAND 2100            85     210/  6/  7 1016.2F
MIDDLE BAY LIGHT 2000            85     210/ 11     1016.9F
USCG MOBILE BAY  2000            90 85  210/  4/  9 1015.8F
STATE DOCKS      2000            90 85              1016.5F
MEAHER PARK      2100            87     200/ 10     1014.9F
FORT MORGAN      2000            86     230/  6/  7 1016.8F
12 S ORANGE BCH  2050            85 87  220/  6/  8 1015.9F
WVE H/P(F/S)=  1/ 6

PENSACOLA BAY    2000            90 86  210/  5/  7 1016.7F
64 S DAUPHIN ISL 2050            84 87  140/  6/  8 1016.9F
WVE H/P(F/S)=  1/ 6

115 SE PENSACOLA 2050            86 90  290/  2/  2 1016.7F
WVE H/P(F/S)=  1/ 4

MID GULF/42001   2100            83 85  110/  4/  6 1015.5F
EAST GULF/42003  2050            85 87   60/  6/  6 1015.7F
WVE H/P(F/S)=  1/ 5


$$

...NEARBY LOCATIONS

CITY           SKY/WX    TMP DP  RH WIND       PRES   REMARKS
GULFPORT       FAIR      85  74  69 S7        30.02F
BILOXI         FAIR      86  74  69 SW8       30.02F
PASCAGOULA     FAIR      86  73  65 S8        30.02F
HATTIESBURG    LGT RAIN  90  67  46 SW15      30.01F
LAUREL         FAIR      90 N/A N/A S6        30.03F
MERIDIAN       LGT RAIN  79  70  74 N5        30.02F
MERIDIAN NAS   TSTM      75  72  90 S6        30.03F
MONTGOMERY     PTSUNNY   96  65  35 CALM      29.99F HX  98
MAXWELL AFB    FAIR      92  69  46 NW3       29.98F HX  97
TROY           FAIR      92  68  45 CALM      30.00F HX  96
FORT RUCKER    PTSUNNY   93  69  45 NE3       29.97F HX  98
DALEVILLE      PTSUNNY   93  68  44 CALM      29.98F HX  97
DOTHAN         FAIR      92  69  47 N3        30.02F HX  97

$$

...OTHER SURROUNDING LOCATIONS...

CITY           SKY/WX    TMP DP  RH WIND       PRES   REMARKS
BIRMINGHAM     CLOUDY    85  75  72 CALM      30.05F
TUSCALOOSA     FAIR      89  69  51 E3        30.02F
COLUMBUS GA    FAIR      90  67  46 CALM      29.99F
PANAMA CITY    NOT AVBL
TALLAHASSEE    PTSUNNY   94  72  48 W7        29.97F HX 102
BATON ROUGE    FAIR      81  69  67 SE9       30.03F
NEW ORLEANS    CLOUDY    81  71  71 S5        30.03F
SLIDELL        FAIR      84  76  76 S7        30.02F
JACKSON        PTSUNNY   89  68  49 CALM      30.01F
MCCOMB         FAIR      86  71  60 S7        30.03F

$$

...SURROUNDING MARINE OBSERVATIONS...

STATION/POSITION TIME  SKY/WX   TEMP    WIND        PRES    VSBY
                                AIR SEA DIR/SP/G
                 (UTC)          (F)     (DEG/KT/KT) (MB)    (MI)
WAVELAND         2000            83 87  170/  7/  8 1017.6F
PASCAGOULA RGN A 2000            86     240/  5/  7 1016.8F
PASCAGOULA PORT  2000               86                N/A
GRAND ISLE       2000            77 86  240/  4/  7 1017.9F
SOUTHWEST PASS   2100                                 N/A
PILOT STATION E  2000            81 86  310/  7/ 12 1017.9F
SHELL BEACH      2000            79 86  240/  7/  9 1017.0F
PANAMA CITY      2000            86 88  240/ 14/ 15 1015.5F
APALACHICOLA     2000            88 87  230/  7/ 12 1015.7F
TYNDALL TOWER C  2100            84     240/ 10/ 11 1015.9F
S APLCHCLA/42036 2050            86 89  280/  4/  6 1016.2F
WVE H/P(F/S)=  1/ 5


$$




USA.gov is the U.S. government's official web portal to all federal, state and local government web resources and services.